Current weather by "City, St" or "zip code"  
 
Advertise Here

Current Conditions: Casa Grande, Casa Grande Municipal Airport, AZ

Fair


43.0 F

Last Updated on Jan 18 2021, 2:56 am MST
Humidity: 27%
Wind Speed: NE 4.6 mph
Barometer 29.93 in
Dewpoint: 10.9 F
Visibility: 10.00 mi
Precip: --
Heat Index: NA
Wind Chill: 40 F
Current conditions at:

Casa Grande, Casa Grande Municipal Airport, AZ (KCGZ)

Lat: 32.95 Lon: 111.76667

Local Radar Image active severe weather and emergency alerts image image weather storm and storm spotter reports image weather observation monitoring service image
Local
Radar
Active
Alerts
Storm Reports Obs
Monitoring

Sign-up For Email & Text Message Weather Alert Notification Services


Advertise Here

Observation History for Casa Grande, Casa Grande Municipal Airport, AZ


Time Wind
(mph)
Vis
(mi)
Weather Precip (in) Temperature (F) Relative
Humidity
Wind
Chill
(F)
Heat
Index
(F)
Pressure
Air Dwpt altimeter
(in)
sea level
(mb)
Rmks
2:56 am MST NE 4.6 10.00 Fair -- 43.0 10.9 27% 40 NA 29.93 1013.0
1:56 am MST NE 4.6 10.00 Fair -- 46.0 12.0 25% 44 NA 29.93 1013.0
12:56 am MST NE 8.1 10.00 Fair -- 43.0 12.9 29% 38 NA 29.93 1013.2
11:56 pm MST N 0.0 10.00 Fair -- 44.0 10.9 26% NA NA 29.94 1013.7
10:56 pm MST E 5.8 10.00 Fair -- 45.0 10.0 24% 42 NA 29.95 1014.3
9:56 pm MST N 0.0 10.00 Fair -- 50.0 10.9 21% NA NA 29.96 1014.6
8:56 pm MST NW 3.5 10.00 Fair -- 57.0 12.9 17% NA NA 29.96 1014.4
7:56 pm MST W 6.9 10.00 Fair -- 57.0 9.0 15% 56 NA 29.97 1015.0
6:56 pm MST N 0.0 10.00 Fair -- 58.0 10.9 15% NA NA 29.97 1015.0
5:56 pm MST NW 3.5 2.00 Fair with Haze -- 68.0 10.9 11% NA NA 29.97 1014.9
4:56 pm MST N 0.0 9.00 Fair -- 74.0 10.0 8% NA NA 29.97 1014.4
3:56 pm MST 3.5 8.00 Fair -- 74.0 12.0 9% NA NA 29.99 1015.3
2:56 pm MST N 0.0 10.00 Fair -- 74.0 12.9 10% NA NA 30.01 1015.6
1:56 pm MST N 0.0 10.00 Fair -- 72.0 12.9 10% NA NA 30.03 1016.3
12:56 pm MST N 6.9 10.00 Fair -- 71.0 12.9 10% NA NA 30.06 1017.5
11:56 am MST E 4.6 10.00 Fair -- 69.0 14.0 12% NA NA 30.09 1018.3
10:56 am MST N 3.5 10.00 Fair -- 61.0 14.0 16% NA NA 30.12 1019.9
9:56 am MST N 0.0 10.00 Fair -- 55.0 12.9 19% NA NA 30.13 1020.1
8:56 am MST SW 3.5 10.00 Fair -- 48.0 14.0 25% NA NA M
7:56 am MST N 0.0 10.00 Fair -- 39.0 12.9 34% NA NA 30.10 1019.4
6:56 am MST N 0.0 10.00 Fair -- 38.0 12.0 34% NA NA 30.10 1019.3
5:56 am MST N 0.0 10.00 Fair -- 38.0 12.9 36% NA NA 30.09 1018.9
4:56 am MST 10.00 Fair -- 47.0 15.1 28% NA NA 30.08 1018.1
3:56 am MST N 0.0 10.00 Fair -- 42.0 12.9 30% NA NA 30.07 1018.0

Regional Weather Observation


Phoenix, Phoenix Sky Harbor International Airport, AZ (KPHX)

Fair
49.0 F

Phoenix-Mesa Gateway Airport, AZ (KIWA)

Fair
41.0 F

Ak-Chin Regional Airport, AZ (KA39)

Fair
45.0 F

Mesa / Falcon Field, AZ (KFFZ)

Fair
50.0 F

Scottsdale Airport, AZ (KSDL)

Fair
43.0 F

Casa Grande, Casa Grande Municipal Airport, AZ (KCGZ)

Fair
43.0 F